Starlink 30479

operational
NORAD ID: 57898 Int'l Des: 2023-146 Owner: SPXS Country: US Constellation: starlink
LEOCIRCULAR

Starlink 30479について

説明を読み込み中...

リアルタイム位置

3D地球を読み込み中...

次回通過

高度履歴

Altitude vs Time

uPlot chart will show altitude changes over time

軌道要素

1 57898U 23146H 25350.17626706 .00005647 00000-0 43290-3 0 9996
2 57898 43.0055 47.1369 0001267 289.8413 70.2293 15.02526331124500
Epoch: Dec 16, 2025 • Age: 20 hours

現在のステータス

高度 560.5 km
速度 7.58 km/s
衛星直下点 -8.37°S, 142.34°E
打ち上げ日 Sep 20, 2023
運用期間 2.2 years
タイプ internet

技術仕様

分類 Payload
質量 730.00 kg
乾燥質量 700.00 kg
総質量 730.00 kg
長さ 0.30 m
直径 4.10 m
スパン 29.00 m
形状 Box + pan
製造者 SPXS
バスタイプ Starlink V2M
フェーズステータス In Orbit
所有者/国 SPXS/US

大規模コンステレーション

Loading constellations...